IRIDIUM 158 (43571 NORAD) Tracking and Keplerian Element Data

This shows tracking and keplerian element data for the satellite.

Feedback or suggestion? Click here.




ElementValue
Catalog43571
NameIRIDIUM 158
Epoch Orbit32556
Epoch Day286.62594846
Epoch Year2024
RAAN312.7508
Inclination86.3943
Eccentricity0.000231
Argument of Perigee95.1114
Mean Anonmoly265.0345
Mean Motion14.34220874
Decay Rate1.099E-05
L11 43571U 18061C 24286.62594846 .00001099 00000+0 38522-3 0 9993
L22 43571 86.3943 312.7508 0002310 95.1114 265.0345 14.34220874325569



Live tracking and technical data element details for IRIDIUM 158 (NORAD 43571). IRIDIUM 158 can be tracked NOW for your location showing map with azimuth and elevation plus other details from your city location.







IsCatalogInMostPopularTable: catalog: 43571, numindb: 596
Update: records affected: 1



GetName: 43571 IRIDIUM 158

Hit Count: updated at: Tue, 03 Dec 2024 03:15:05 GMT